Race Results for
Showdown at Sugar NMBS #2
Sugar Mountain, NC
(Event Information)
Downhill on 06/10/2006

Note: Ranking points are NOT upgrade points. An explanation of ranking points can be found here.


Men - SP - Junior - 1-16

 Place Points NameCity, StateTime USAC #BibTeam
1Conor Lockwood   Charlotte, VT05:31.38 192120  624 
2Charles Mickel   Greenville, SC05:48.39 229192  889 

Men - SP - Junior - 1-18

 Place Points NameCity, StateTime USAC #BibTeam
1540.00Jonathan Bowdish   Weybridge, VT05:02.14 224091  525 
2548.33Benjamin McMechen   Black Mountain, NC05:07.52 233559  844 
3TYLER CROUSE   05:25.98  716 
4ERIC MCPETERS   05:50.49  463 1337 RACIN
5PHILIP NOTO   05:53.89  772 
6SEBASTIAN HERNANDEZ   06:52.16  968 
7590.00Jonathan Strickland   Clayton, NC07:17.44 213212  751 SWD/ICW/MA
DNFTAYLOR STROUD   DNF  738 

Men - SP - Senior - 19-24

 Place Points NameCity, StateTime USAC #BibTeam
1WILL ECKHARDT   04:51.21  631 
2502.87Alex Ohman   Knoxville, TN04:51.99 210887  724 BIKESENJAV
3STEPHEN CZAPIGA   04:59.24  775 GPR RACING
4520.30Steven Trottier   Lewisville, NC05:11.86 190301  771 
5DAVID ASHWORTH   05:16.38  943 BACK COUNT
6ANDONI JARDINEZ   05:26.61  808 GUSTO CYCL
7546.44Joseph Grimes   Boone, NC05:33.20 242647  838 COLUMBUS B
8CARL TANNENBAUM   05:47.22  538 1337
9ROBERT MCCAW   05:49.36  684 
10MARIO HERNANDEZ   06:01.21  969 
11581.29Shawn Kane   Jacksonville, NC06:10.80 193793  955 NC STATE C
12JOSH HEIMANN   09:52.90  886 REICYCLES

Men - SP - Senior - 25-29

 Place Points NameCity, StateTime USAC #BibTeam
1540.00Travis Williams   Baltimore, MD05:07.18 194102  910 
2BRANDON BARBER   05:44.44  887 BAR HUMP W
3AARON KACHERIK   06:47.28  782 GRETNA BIK

Men - SP - Master - 30-34

 Place Points NameCity, StateTime USAC #BibTeam
1JOSH HENNESSEY   04:59.78  840 
2BRYAN COURTRIGHT   05:53.00  583 
3565.00Lloyd Barnett   Tucker, GA06:03.56 184505  735 
4577.50Zachary Gavin   Browns Summit, NC06:11.21 141644  816 PAULS CYCL
5TIMOTHY BARRETT JR   06:23.03  448 
DNFSHANNON STOWERS   DNF  759 
DNFCHAD WHICHARD   DNF  499 

Men - SP - Master - 35-39

 Place Points NameCity, StateTime USAC #BibTeam
1540.00Todd Gue   Glenwood, MD04:54.08 115538  903 
2LAWRENCE WELLS   05:06.04  404 
3556.67Jon Naylor   Indian Land, SC05:31.25 75691  748 TLD
4MICHAEL STORM   05:37.99  965 
5MARK MALESKI   05:45.63  869 
6DAVID DOBSON   05:46.42  515 
7590.00John Coffman   Bowling Green, KY06:23.98 96750  721 

Men - SP - Master - 40-49

 Place Points NameCity, StateTime USAC #BibTeam
1STEPHEN ALONSO   05:08.75  457 ATLANTA PR
2JOHN GRAILHEN   05:41.71  828 DLB.D
3556.67Glenn Hawks   Indian Harbour Beach, FL05:49.75 246936  511 FILZBUILT
4565.00Bruce Lipski   Leesburg, VA06:14.59 224212  557 
5573.33Michael Rothenbeck   Easton, PA06:23.56 218912  744 ACTION WHE
6CARTER STICKNEY   06:49.51  841 GRAVITYPIL
7THOMAS MITCHELL   07:20.92  970 

Men - SP - Master - 50-99

 Place Points NameCity, StateTime USAC #BibTeam
1VINCENT BRADLEY   06:36.36  767 

Men - Cat 1/2/3 - Senior - 19-29

 Place Points NameCity, StateTime USAC #BibTeam
1400.90John Stewart   Baltimore, MD06:36.73 214200  739 YOUSGUYS.O
2412.48Maximilian (Max) Hoener   Rhinebeck, NY06:46.73 154637  727 FLC
3424.07Michael Thomas   Randleman, NC06:52.62 187985  709 SEI/MICHEL
4435.65Trevor Downing   Durango, CO06:53.78 161859  207 BV BIKES/S
5447.24Park Baker   Brevard, NC07:00.67 224953  939 SYCAMORE C
6458.82Tom Murphy   Cary, NC07:14.86 120487  712 YETI/FOX
7KEITH BARBER   07:21.92  527 
8481.99Phillip Prater   Little Rock, AR07:28.80 230091  812 
9493.57Nicholas Leigh   Springfield, MA07:35.06 189574  560 IRON HORSE
10PETER GRAFF   07:35.34  486 
11DAVID ECKHARDT   07:41.17  732 
12MICKEY GRANT   07:54.83  942 
13JOHN THOMAS   08:36.32  655 
14NICHOLAS DIERKES   09:56.38  633 

Men - Cat 1/2/3 - Master - 30-39

 Place Points NameCity, StateTime USAC #BibTeam
1440.77Brandon Sloan   Morgan Hill, CA06:23.51 32941  322 SPECIALIZE
2TIM RICHARDSON   06:29.35  885 HUGH JASS
3451.08Andy DeVault   Martinsville, VA06:42.78 133063  634 276 RACING
4JOSH HENNESSEY   06:44.45  840 
5461.39Tom McDonnell   Sugar Grove, NC06:52.40 150598  865 BOONE BIKE
6466.55Bryan Mitchell   Northville, MI07:11.85 160158  799 KONA MIDWE
7JAMES BENDER   07:21.23  921 
8476.86Mark Overby   Chapel Hill, NC07:21.36 247907  746 RMS
9482.01Jeff Dein   Macon, GA07:21.91 95381  789 HCOR.NET/F
10487.17Ashley Appling   Suwanee, GA07:23.18 191105  492 T2 BIKES
11492.32Ed Buchan   Raleigh, NC07:25.56 222755  589 SPEEDH
12BRAD JIMISON   07:35.07  930 PEACHTREE
13502.63Todd Gue   Glenwood, MD07:38.36 115538  903 
14507.79Scott Johnson   Durham, NC07:51.63 121482  565 TROLL RACI
15512.94Campbell Newport   Deerfield Beach, FL08:42.15 179880  552 
16JASON BECKMAN   08:43.81  848 
17DAVID BLALOCK   09:59.96  430 
18528.41O'Neill Ryan   Asheville, NC10:52.20 30998  763 ZCC
19VINNIE VIRZI   10:54.66  842 GRAVITYPIL
20MARK MALESKI   11:18.93  869 

Men - Cat 1/2/3 - Master - 40-49

 Place Points NameCity, StateTime USAC #BibTeam
1540.00Richard Machycek   Sherwood, AR06:35.46 22016  952 ARKANSAS C
2552.50Bill Scott   Orange, CA07:02.53 226977  438 SHO-AIR
3STEVEN HOOVER   07:55.73  820 TRE-VW FAC
4577.50Mark French   Louisville, KY08:02.52 128970  468 KYMBA
5STEPHEN ALONSO   08:33.44  457 ATLANTA PR

Men - Cat 1/2/3 - Master - 50-99

 Place Points NameCity, StateTime USAC #BibTeam
1416.62Timothy Messersmith   York, PA07:40.81 128500  821 TREK-VW
2459.97Scott Lideen   Phoenix, AZ08:13.14 142637  422 DP AIR/SAN
3503.31John Lilly   Blue Ridge, GA12:34.44 201102  861 CYCLE SOUT
4546.66Bruce McCann   Loveland, OH16:37.49 127940  597 TEAM AMIGO
5590.00James Van Manen   Ventura, CA17:32.53 36453  450 BICYCLES O

Men - EX - Junior - 1-16

 Place Points NameCity, StateTime USAC #BibTeam
1540.00Taylor Calvert   San Luis Obispo, CA04:49.54 218535  586 SANTA CRUZ
2556.67Taylor Fauntleroy   Santa Barbara, CA05:03.05 234529  680 SPY/KICKER
3VINCE WATERS   05:18.77  531 1337
4590.00Andy Becker   Santa Barbara, CA05:23.67 217150  433 CHUMBA RAC

Men - EX - Junior - 1-18

 Place Points NameCity, StateTime USAC #BibTeam
1279.64Daniel Hultgen   Santa Barbara, CA04:02.95 184908  700 MICHELIN/S
2287.97Logan Binggeli   Saint George, UT04:05.64 213148  592 CANNONDALE
3ZAC WILLIAMS   04:07.95  495 
4304.63Jacob Bergeron   Colorado Springs, CO04:08.48 215410  641 BERGERON
5312.95Jake Capriotti   Coto De Caza, CA04:08.73 213147  689 MONGOOSE/T
6NIC DENT   04:10.28  580 
7329.61Timothy Price   Great Falls, VA04:12.53 194155  547 
8337.94Benjamin Hulse   Mooresville, NC04:14.76 211866  992 
9346.27Hank Cadle   Lake Forest, CA04:21.09 191080  791 AMP'D RACI
10354.60Steven McCullough   Kalispell, MT04:21.77 198700  418 GIANT/FOX/
11362.93John Hauer   Santa Cruz, CA04:27.52 205936  572 WTB SPECIA
12371.25Taylor Lideen   Phoenix, AZ04:31.93 210964  421 DP AIR/SAN
13379.58Burke Saunders   Great Falls, VA04:33.27 200536  678 VTS/MAXXIS
14387.91Jesse Belt   Fayetteville, AR04:36.50 225811  683 MOREWOOD/M
15396.24TJ Fisker   Tucson, AZ04:38.62 200762  673 RPM/YETI
16404.57Paul Beardsley   Ripton, VT04:39.98 229383  593 
17412.90P Post   Banner Elk, NC04:44.88 213804  694 LEES-MCRAE
18421.23Jonathan Kranzel   Mount Carmel, PA04:46.09 226078  718 READING RA
19429.56Jeff Cayley   Santa Clarita, CA04:47.99 219853  797 MOREWOOD/6
20437.88Amado Stachenfeld   Berkeley, CA04:49.64 209079  540 TEAM PLANE
21446.21Andrew Kern   Albuquerque, NM04:49.86 244275  663 
22454.54Eric Witthans   Fayetteville, AR04:50.48 229453  681 FBC/UTOPIA
23462.87Chris Myers   Colorado Springs, CO04:51.34 225550  773 BRODIE BIK
24471.20Trace Lapid   Aptos, CA04:53.58 211533  561 SANTA CRUZ
25479.53Jason Eaton   Cary, NC04:54.84 200137  743 
26487.86Charles (Casey) Baker   Great Falls, VA05:07.86 213819  594 
27496.19William Creyer   Fayetteville, AR05:08.61 211801  682 UTOPIA/SIC
28PRESTON MOORE   06:05.33  620 
DNFJohn Swanguen   San DiegoDNF 175203  539 HARO-TLD-N
DNFSpenser Bruce   Santa Barbara, CADNF 211529  427 
DNFPAT CLAPP   DNF  987 X-FUSION

Men - EX - Senior - 19-24

 Place Points NameCity, StateTime USAC #BibTeam
1321.03James Valdez   El Paso, TX04:19.50 226564  500 
2359.95Art Widmar   Boise, ID04:41.44 215563  715 NORCO/BIKE
3398.88Matt Tenure   Newport Beach, CA04:41.58 234095  662 OAKLEY/MAX
4437.80Tim White   Burlington, VT04:48.32 201948  496 
5476.72Michael Thomas   Randleman, NC04:50.66 187985  709 SEI/MICHEL
6515.65Neil Beytagh   Fletcher, NC04:53.71 208441  685 TEAM MOREW
7KEITH BARBER   05:06.85  527 
DNFCaleb Cambern   Boulder, CODNF 230230  522 RUBBER DOW

Men - EX - Senior - 25-29

 Place Points NameCity, StateTime USAC #BibTeam
1444.12Matt Griffin   Greenville, SC04:29.35 148978  800 SEI RACING
2462.35John Stewart   Baltimore, MD04:34.85 214200  739 YOUSGUYS.O
3480.59Ryan DeLong   Eureka, CA04:37.55 156697  581 BIOWHEELS
4498.82Matthew Gerlins   Easton, PA04:45.04 213782  697 READINGRAC
5517.06Justin Fraczek   New Milford, CT04:46.33 194357  667 MOREWOOD B
6TODD NICHOLAS   04:55.44  781 GRETNA BIK
7553.53Andrew Farrell   Boston , MA05:10.77 243528  679 
8571.76Brady Owens   Apo, AE05:15.54 193564  788 HCOR.NET
9590.00Michael Crnjarich   Beaver, PA06:11.68 220249  518 READING RA

Men - EX - Master - 30-34

 Place Points NameCity, StateTime USAC #BibTeam
1SHAJJAN RAJBANSHI   04:42.39  883 
2538.56Matthew Conto   Bishop, GA04:59.02 164529  777 TIFOSI OPT
3548.85Ashley Appling   Suwanee, GA05:01.61 191105  492 T2 BIKES
4559.13Donald Roberts   05:13.98 214193  729 ERNIES BIK
5569.42Will Karr   Baltimore, MD05:22.39 229598  839 TRANSITION
6579.71Jeff Dein   Macon, GA05:39.47 95381  789 HCOR.NET/F
7590.00Nick Lyons   Scottsville, KY06:00.78 135817  720 DOWN IN TH
DNFAriel Lindsley   Aptos, CADNF 134618  670 MAVERICK
DNFChristopher Filipiak   Asheville, NCDNF 176053  802 KONA MIDWE

Men - EX - Master - 35-39

 Place Points NameCity, StateTime USAC #BibTeam
1488.50Daniel Shaner   Greensboro, NC04:35.24 184277  978 PACELINE
2492.76Matthew Adams   Moravian Falls, NC04:37.80 213371  595 ADAMS RACI
3497.03Andy DeVault   Martinsville, VA04:41.08 133063  634 276 RACING
4501.29Nathanial Bartholomew   Pottstown, PA04:43.95 2773  706 SPINTECK.C
5505.55Anthony Pajakinas   Douglassville, PA04:44.97 118437  696 READING RA
6509.82Lawrence Klein   Marietta, GA04:48.36 193887  723 FAT CITY C
7RON VonKENBURG   04:49.26  1021 MOB
8518.35Ed Buchan   Raleigh, NC04:50.48 222755  589 SPEEDH
9522.61William (Bill) Grabowski   Fletcher, NC04:50.86 132141  722 CAROLINA F
10526.87Steven Kaufman   Wake Forest, NC04:54.29 151749  482 SQUIRRELLY
11531.14Mark Overby   Chapel Hill, NC04:55.35 247907  746 RMS
12535.40Eric Charles   York, PA05:43.11 131195  757 SUN RIMS/M
13539.66Bryan Mitchell   Northville, MI05:47.65 160158  799 KONA MIDWE
14KEVIN GORDON   06:03.39  849 
DNFMatthew Mills   Greensburg, KYDNF 98186  728 CKY RACING

Men - EX - Master - 40-44

 Place Points NameCity, StateTime USAC #BibTeam
1540.00Jerry Hayes   Burlington, NC04:37.19 86359  979 PACELINE
2565.00Joel Leyva   Los Gatos, CA05:07.09 168323  558 INTEL CORP
3590.00Jon Martin   Arcata, CA05:24.88 169689  554 DARK HORSE

Men - EX - Master - 45-49

 Place Points NameCity, StateTime USAC #BibTeam
1540.00Dane Clay   Reading, PA04:22.20 200205  698 READING RA
2556.67Rick Wiles   Newnan, GA04:28.03 122339  726 FAT CITY C
3573.33Les Price   Scottsdale, AZ05:00.32 177801  452 NO BRAKES
4590.00David Barclay   Boise, ID06:23.38 2552  832 BIKES 2 BO

Men - EX - Master - 50-54

 Place Points NameCity, StateTime USAC #BibTeam
1540.00Scott Lideen   Phoenix, AZ05:44.96 142637  422 DP AIR/SAN
2565.00Michael Sabin   Sandpoint, ID05:53.13 31023  758 ADIDAS/CON
3590.00Joel Creed   Franklin, IN06:00.80 146083  636 

Men - EX - Master - 55-59

 Place Points NameCity, StateTime USAC #BibTeam
1Stefan Cihylik   Allentown, PA05:26.92 181461  521 

Men - EX - Master - 65-99

 Place Points NameCity, StateTime USAC #BibTeam
1Gerardo Florez   Ponte Vedra, FL05:35.92 144584  469 

Men - BG - Junior - 1-16

 Place Points NameCity, StateTime USAC #BibTeam
1536.43J Frith   Martinsville, VA05:15.68 201434  575 CYCLES DE
2NICHOLAS HEIDMANN   05:35.59  871 REALITY BI
3557.86Alex Bowdish   Weybridge, VT05:44.96 231814  524 
4NATHAN WILSON   05:53.95  609 
5SETH CALLAHAN   06:38.89  587 
6WADE COLLINS   07:55.55  584 

Men - BG - Junior - 1-18

 Place Points NameCity, StateTime USAC #BibTeam
1SAM GODFREY   06:02.87  741 
2CHRISTOPHER BUCKLEY   06:20.73  588 
3DILLON NANCE   07:00.00  742 
4BROCK OGLESBY   07:06.65  776 

Men - BG - Senior - 19-24

 Place Points NameCity, StateTime USAC #BibTeam
1540.00Robert Marion   Mount Airy, NC05:30.81 220597  665 PRO HEALTH
2MICHAEL MARTIN   05:57.30  870 REALITY BI
3ANDREW LOWD   08:19.71  556 
4PATRICK FAIN   10:04.68  795 X-FUSION

Men - BG - Senior - 25-29

 Place Points NameCity, StateTime USAC #BibTeam
1Andrew Lynch   Winston Salem, NC06:03.27 180609  625 PRO HEALTH
2IAN BROWN   10:47.66  590 FAT KIDS/M

Men - BG - Master - 30-34

 Place Points NameCity, StateTime USAC #BibTeam
1JASON SPRAGUE   09:01.67  674 SEBAGO OUT
DNFJOSHUA BAGWELL   DNF  950 
DNFBENJY BROWN   DNF  951 

Men - BG - Master - 35-39

 Place Points NameCity, StateTime USAC #BibTeam
1540.00david wilson   Martinsville, VA05:29.05 247967  882 
2JAMES FITZGERALD   06:11.44  856 
3GARY COLLINS   06:59.00  585 
DNFDAVID BLALOCK   DNF  430 
DNFJOEL JOHNSON   DNF  509 TEAM 276

Men - BG - Master - 40-49

 Place Points NameCity, StateTime USAC #BibTeam
1KERRY HUGHES   07:03.57  714 
DNFClark Wright   Auburn, CADNF 234837  402 COMMENCAL

Men - BG - Master - 50-99

 Place Points NameCity, StateTime USAC #BibTeam
1Bruce McCann   Loveland, OH15:17.11 127940  597 TEAM AMIGO

Men - Pro - Senior

 Place Points NameCity, StateTime USAC #BibTeam
1JOHN KIRKCALDIE   05:38.43  TEAM MAXXI
2383.20Ross Schnell   Grand Jct, CO05:43.50 99965  53 TREK/VW
3ADAM CRAIG   05:56.10  973 
4396.13Ariel Lindsley   Aptos, CA06:00.18 134618  670 MAVERICK
5402.59Mike West   Boulder, CO06:01.31 37786  899 MAVERICK
6409.06Christopher Herndon   Pisgah Forest, NC06:03.66 96111  686 CANE CREEK
7415.52Hugh Taylor   Candler, NC06:06.17 119232  778 
8WAYLON SMITH   06:08.15  771 KHS
9428.45Christopher Eatough   Ellicott City, MD06:13.00 97632  900 TREK/VW
10434.92Justin Graves   Arcata, CA06:20.24 180154  333 REVOLUTION
11441.38Sven Martin   Newport Beach, CA06:23.82 173862  948 HONDA/IRON
12447.85Dustin Greer   Cedar Hill, TN06:26.65 178240  215 HONEY STIN
13454.31David Wood   Hendersonville, NC06:26.74 205937  707 BIKE DOCTO
14460.78Marvin Scanland   Hampstead, MD06:31.73 163826  740 YOUSGUYS.O
15467.25Jorel Hendershot   Mears, MI06:35.50 116140  470 BEAR NAKED
16473.71Brandon Draugelis   Shippensburg, PA06:54.16 179397  493 BEAR NAKED
17480.18Aaron Bradford   Santa Cruz, CA06:56.25 156335  695 LEES MCRAE
18486.64Michael Valach   Snowshoe, WV07:03.51 82951  730 VIC'S TREE
19493.11David KlaassenVanOorschot   Riverside, CA07:16.83 154642  925 KHS BICYCL
20499.57Christopher Filipiak   Asheville, NC07:17.35 176053  802 KONA MIDWE
21506.04Cecil Linder   Greenville, SC07:33.31 155198  332 SEI RACING
DNFBryan Fawley   Denton, TXDNF 198394  857 WHEELSINMO
DNFDonald Galligher   Bloomington, INDNS 180004  204 CHIROPOWER

Men - Junior - JR - 1-10

 Place Points NameCity, StateTime USAC #BibTeam
1Kees Inserni   Corpus Christi, TX14:31.76 217486  907 MAGIC CYCL

Men - Junior - JR - 1-18

 Place Points NameCity, StateTime USAC #BibTeam
1412.96Taylor Lideen   Phoenix, AZ06:44.75 210964  421 DP AIR/SAN
2442.46P Post   Banner Elk, NC06:54.13 213804  694 LEES-MCRAE
3471.97Art Nelsen   Boulder, CO07:06.74 211465  461 TOKYO JO
4NATHAN WILSON   07:36.30  609 
5SETH CALLAHAN   08:26.28  587 
6JACOB BRACKEN   09:30.41  966 SYCAMORE C
7JOHN HELME   10:38.28  702 

Men - Junior - JR - 11-12

 Place Points NameCity, StateTime USAC #BibTeam
1Hunter Becker   Santa Barbara, CA05:39.79 217149  432 
2CODY MCMECHEN   10:35.97  876 

Men - Junior - JR - 13-14

 Place Points NameCity, StateTime USAC #BibTeam
1MICKEY MCMECHEN   07:11.97  846 
2JACOB BRACKEN   07:59.01  966 
3ALEX HILL   10:17.97  570 CANE CREEK
DNFChristian Wright   Auburn, CADNF 234304  403 COMMENCAL

Women - SP - Junior - 1-18

 Place Points NameCity, StateTime USAC #BibTeam
1Kristine Koch   East Aurora, NY07:07.91 203473  893 TEAM CMI/S

Women - SP - Senior - 19-29

 Place Points NameCity, StateTime USAC #BibTeam
1Olivia Maurey   Port Orange Fl.14:24.77 233753  616 LEES-MCRAE

Women - SP - Master - 30-39

 Place Points NameCity, StateTime USAC #BibTeam
1Kristin Andrs   Petersburg, VA08:52.80 200540  807 CYCOR/CONT

Women - Cat 1/2/3 - Senior - 19-29

 Place Points NameCity, StateTime USAC #BibTeam
1AMANDA PILLING   08:47.03  803 KONA MIDWE
2556.67Maureen Kunz   Oakland, CA09:18.74 206973  465 CONTENT WO
3573.33Lianna Miller   Colorado Springs, CO10:18.23 218389  619 
4KLARA VRBOVA   10:36.53  648 

Women - Cat 1/2/3 - Master - 30-39

 Place Points NameCity, StateTime USAC #BibTeam
1540.00Lisa Beckman   Oakland, MD10:07.52 213829  847 
2565.00Kristin Andrs   Petersburg, VA10:30.97 200540  807 CYCOR/CONT
3KIM JOCHL   11:00.65  446 JOCHL RACI

Women - Cat 1/2/3 - Master - 40-99

 Place Points NameCity, StateTime USAC #BibTeam
1Vicki Koch   West Falls, NY10:43.56 200770  892 TEAM CMI/S

Women - EX - Senior - 19-29

 Place Points NameCity, StateTime USAC #BibTeam
1Sondra Williamson   Carpinteria, CA06:22.54 218537  608 SPECIALIZE
DNFAbigail Hippely   Santa Cruz, CADNF 184801  669 MAVERICK

Women - EX - Master - 35-39

 Place Points NameCity, StateTime USAC #BibTeam
1Ellen Adams   Moravian Falls, NC05:56.32 200683  596 ADAMS RACI

Women - EX - Master - 45-49

 Place Points NameCity, StateTime USAC #BibTeam
1Vicki Koch   West Falls, NY05:33.83 200770  892 TEAM CMI/S

Women - BG - Master - 30-39

 Place Points NameCity, StateTime USAC #BibTeam
1PAT NOIBOONTURM   08:59.07  713 

Women - Pro - Senior

 Place Points NameCity, StateTime USAC #BibTeam
1540.00Susan Haywood   Harrisonburg, VA06:43.46 117585  901 TREK/VW
2552.50Anka Martin   Laguna Beach, CA07:43.20 172194  880 HONDA/IRON
3565.00Kote Driscoll   San Luis Obispo, CA07:44.91 206129  675 CHUMBA/BOO
4577.50Chenoah Hendershot   Mears, MI08:52.27 174025  485 BEAR NAKED
5590.00Monique Hein   Lyons, CO10:30.25 187615  643 LEES-MCRAE
DNFAbigail Hippely   Santa Cruz, CADNS 184801  669 MAVERICK

Women - Junior - JR - 1-10

 Place Points NameCity, StateTime USAC #BibTeam
DNFAlicia Styer   Gettysburg, PADNF 245901  459 VELO BELLA

Women - Junior - JR - 1-18

 Place Points NameCity, StateTime USAC #BibTeam
1Kristine Koch   East Aurora, NY10:11.90 203473  893 TEAM CMI/S

Women - Junior - JR - 11-12

 Place Points NameCity, StateTime USAC #BibTeam
1Kiersten Inserni   Corpus Christi, TX14:12.15 208489  908 VELO BELLA

Report missing or incorrect license numbers

Volkswagen
Bonk BreakerUSACDFSierra NevadaCUORESpyShimano
UCI USA Cycling is the official governing body for all disciplines of competitive cycling in the United States. The 501c3, membership-based organization aims both to achieve sustained success in international cycling competition and to grow competitive cycling in America while delivering an exceptional customer experience.
View Children's Online Privacy Protection Policy
US Olympic Committee